Skip Page Navigation
NASA JPL Caltech
NASA Logo - Jet Propulsion Laboratory + View the NASA Portal
+ Center for Near-Earth Object Studies
JPL Home Earth Solar System Stars & Galaxies Technology
JPL Solar System Dynamics
BODIES ORBITS EPHEMERIDES TOOLS PHYSICAL DATA DISCOVERY FAQ SITE MAP
JPL Small-Body Database Browser
Search: [ help ]  
(2016 DV1)
Classification: Apollo [NEO]          SPK-ID: 3744833
Ephemeris | Orbit Diagram | Orbital Elements | Mission Design | Physical Parameters | Close-Approach Data ]

[ show orbit diagram ]
Orbital Elements at Epoch 2459396.5 (2021-Jul-01.0) TDB
Reference: JPL 27 (heliocentric ecliptic J2000)
 Element Value Uncertainty (1-sigma)   Units 
e .6285065916328615 2.2261e-07  
a 1.828748192220381 1.2095e-07 au
q .6793678989731922 4.3058e-07 au
i 3.36118620204123 1.1721e-05 deg
node 161.6744442462489 4.8925e-06 deg
peri 80.41900984869514 5.6901e-05 deg
M 29.22201407276292 2.5871e-06 deg
tp 2459323.177555347415
(2021-Apr-18.67755535)
1.0615e-05 TDB
period 903.2943454617506
2.47
8.9612e-05
2.453e-07
d
yr
n .3985411862796211 3.9537e-08 deg/d
Q 2.978128485467569 1.9696e-07 au
  Orbit Determination Parameters
   # obs. used (total)      296  
   # delay obs. used      0  
   # Doppler obs. used      3  
   data-arc span      1827 days (5.00 yr)  
   first obs. used      2016-02-28  
   last obs. used      2021-02-28  
   planetary ephem.      DE441  
   SB-pert. ephem.      SB441-N16  
   condition code      0  
   norm. resid. RMS      .37641  
   source      ORB  
   producer      Otto Matic  
   solution date      2021-Apr-15 16:29:21  

Additional Information
 Earth MOID = .00112599 au 
 Jupiter MOID = 2.05709 au 
 T_jup = 3.766 
[ show covariance matrix ]

Ephemeris | Orbit Diagram | Orbital Elements | Mission Design | Physical Parameters | Close-Approach Data ]

Physical Parameter Table
Parameter Symbol Value Units Sigma Reference Notes
absolute magnitude H 24.8   n/a MPO438023  
rotation period rot_per 0.084148 h n/a LCDB (Rev. 2020-October); Warner et al., 2009 Published Reference List:
[Warner, B.D. (2016) Minor Planet Bull. 43, 240-250.]
[Behrend, R. (2017) Observatoire de Geneve web site, http://obswww.unige.ch/~behrend/page_cou.html]

[ show close-approach data ]
Ephemeris | Orbit Diagram | Orbital Elements | Mission Design | Physical Parameters | Close-Approach Data ]
ABOUT SSD CREDITS/AWARDS PRIVACY/COPYRIGHT GLOSSARY LINKS
FirstGov 2021-Jul-27 00:31 UT
(server date/time)  
NASA Home Page
Site Manager:   Ryan S. Park
Webmaster  Alan B. Chamberlin